Time,TemperatureF,DewpointF,PressureIn,WindDirection,WindDirectionDegrees,WindSpeedMPH,WindSpeedGustMPH,Humidity,HourlyPrecipIn,Conditions,Clouds,dailyrainin,SoftwareType,DateUTC
2013-08-12 00:00:00,74.5,63.7,30.15,NE,45,0.0,0.0,69,0.00,,CLR,0.00,VWS V14.01,2013-08-12 04:00:00,
2013-08-12 00:01:00,74.5,63.7,30.15,NE,45,0.0,0.0,69,0.00,,CLR,0.00,VWS V14.01,2013-08-12 04:01:00,
2013-08-12 00:04:00,74.3,63.9,30.15,NE,45,0.0,0.0,70,0.00,,CLR,0.00,VWS V14.01,2013-08-12 04:04:00,
2013-08-12 00:09:00,74.1,63.7,30.15,NE,45,0.0,0.0,70,0.00,,CLR,0.00,VWS V14.01,2013-08-12 04:09:00,
2013-08-12 00:14:00,74.1,64.5,30.15,NE,45,0.0,0.0,72,0.00,,CLR,0.00,VWS V14.01,2013-08-12 04:14:00,
2013-08-12 00:19:00,73.9,65.1,30.15,NE,45,0.0,0.0,74,0.00,,CLR,0.00,VWS V14.01,2013-08-12 04:19:00,
2013-08-12 00:24:00,73.8,64.6,30.15,NE,45,0.0,0.0,73,0.00,,CLR,0.00,VWS V14.01,2013-08-12 04:24:00,
2013-08-12 00:29:00,73.8,65.0,30.15,NE,45,0.0,0.0,74,0.00,,CLR,0.00,VWS V14.01,2013-08-12 04:29:00,
2013-08-12 00:34:00,73.6,64.8,30.15,NE,45,0.0,0.0,74,0.00,,CLR,0.00,VWS V14.01,2013-08-12 04:34:00,
2013-08-12 00:39:00,73.4,64.6,30.15,NE,45,0.0,0.0,74,0.00,,CLR,0.00,VWS V14.01,2013-08-12 04:39:00,
2013-08-12 00:44:00,73.2,64.8,30.15,NE,45,0.0,0.0,75,0.00,,CLR,0.00,VWS V14.01,2013-08-12 04:44:00,
2013-08-12 00:49:00,73.2,64.8,30.15,NE,45,0.0,0.0,75,0.00,,CLR,0.00,VWS V14.01,2013-08-12 04:49:00,
2013-08-12 00:54:00,73.2,65.2,30.15,NE,45,0.0,0.0,76,0.00,,CLR,0.00,VWS V14.01,2013-08-12 04:54:00,
2013-08-12 00:59:00,73.0,65.0,30.15,NE,45,0.0,0.0,76,0.00,,CLR,0.00,VWS V14.01,2013-08-12 04:59:00,
2013-08-12 01:00:00,73.0,65.0,30.15,NE,45,0.0,0.0,76,0.00,,-RA,0.00,VWS V14.01,2013-08-12 05:00:00,
2013-08-12 01:04:00,72.9,65.2,30.15,NE,45,0.0,0.0,77,0.00,,CLR,0.00,VWS V14.01,2013-08-12 05:04:00,
2013-08-12 01:09:00,72.9,64.9,30.15,NE,45,0.0,0.0,76,0.00,,CLR,0.00,VWS V14.01,2013-08-12 05:09:00,
2013-08-12 01:14:00,72.7,65.4,30.15,NE,45,0.0,0.0,78,0.00,,CLR,0.00,VWS V14.01,2013-08-12 05:14:00,
2013-08-12 01:19:00,72.7,65.4,30.15,NE,45,0.0,0.0,78,0.00,,,0.00,VWS V14.01,2013-08-12 05:19:00,
2013-08-12 01:24:00,72.5,65.3,30.15,NE,45,0.0,0.0,78,0.00,,,0.00,VWS V14.01,2013-08-12 05:24:00,
2013-08-12 01:29:00,72.3,65.8,30.18,NE,45,0.0,0.0,80,0.00,,,0.00,VWS V14.01,2013-08-12 05:29:00,
2013-08-12 01:34:00,72.3,65.8,30.18,NE,45,0.0,0.0,80,0.00,,,0.00,VWS V14.01,2013-08-12 05:34:00,
2013-08-12 01:39:00,72.1,65.6,30.18,NE,45,0.0,0.0,80,0.00,,,0.00,VWS V14.01,2013-08-12 05:39:00,
2013-08-12 01:44:00,72.1,65.6,30.15,NE,45,0.0,0.0,80,0.00,,,0.00,VWS V14.01,2013-08-12 05:44:00,
2013-08-12 01:49:00,72.0,65.5,30.15,NE,45,0.0,0.0,80,0.00,,,0.00,VWS V14.01,2013-08-12 05:49:00,
2013-08-12 01:54:00,71.8,65.6,30.15,NE,45,0.0,0.0,81,0.00,,,0.00,VWS V14.01,2013-08-12 05:54:00,
2013-08-12 01:59:00,71.8,65.3,30.15,NE,45,0.0,0.0,80,0.00,,,0.00,VWS V14.01,2013-08-12 05:59:00,
2013-08-12 02:00:00,71.8,65.3,30.15,NE,45,0.0,0.0,80,0.00,,-RA,0.00,VWS V14.01,2013-08-12 06:00:00,
2013-08-12 02:03:00,71.6,65.5,30.15,NE,45,0.0,0.0,81,0.00,,,0.00,VWS V14.01,2013-08-12 06:03:00,
2013-08-12 02:08:00,71.4,65.6,30.15,NE,45,0.0,0.0,82,0.00,,,0.00,VWS V14.01,2013-08-12 06:08:00,
2013-08-12 02:13:00,71.4,65.6,30.15,NE,45,0.0,0.0,82,0.00,,,0.00,VWS V14.01,2013-08-12 06:13:00,
2013-08-12 02:18:00,71.4,65.3,30.15,NE,45,0.0,0.0,81,0.00,,CLR,0.00,VWS V14.01,2013-08-12 06:18:00,
2013-08-12 02:23:00,71.2,65.5,30.15,NE,45,0.0,0.0,82,0.00,,CLR,0.00,VWS V14.01,2013-08-12 06:23:00,
2013-08-12 02:28:00,71.4,65.3,30.15,NE,45,0.0,0.0,81,0.00,,CLR,0.00,VWS V14.01,2013-08-12 06:28:00,
2013-08-12 02:33:00,71.4,65.3,30.15,North,0,0.0,0.0,81,0.00,,CLR,0.00,VWS V14.01,2013-08-12 06:33:00,
2013-08-12 02:38:00,71.4,65.3,30.15,North,0,0.0,0.0,81,0.00,,CLR,0.00,VWS V14.01,2013-08-12 06:38:00,
2013-08-12 02:43:00,71.4,65.3,30.15,North,0,0.0,0.0,81,0.00,,CLR,0.00,VWS V14.01,2013-08-12 06:43:00,
2013-08-12 02:48:00,71.2,65.1,30.15,North,0,0.0,0.0,81,0.00,,,0.00,VWS V14.01,2013-08-12 06:48:00,
2013-08-12 02:53:00,71.2,65.5,30.15,North,0,0.0,0.0,82,0.00,,,0.00,VWS V14.01,2013-08-12 06:53:00,
2013-08-12 02:58:00,71.1,64.9,30.15,North,0,0.0,0.0,81,0.00,,,0.00,VWS V14.01,2013-08-12 06:58:00,
2013-08-12 03:00:00,71.1,65.3,30.15,North,0,0.0,0.0,82,0.00,,-RA,0.00,VWS V14.01,2013-08-12 07:00:00,
2013-08-12 03:03:00,70.9,65.5,30.15,North,0,0.0,0.0,83,0.00,,,0.00,VWS V14.01,2013-08-12 07:03:00,
2013-08-12 03:08:00,70.9,65.8,30.15,North,0,0.0,0.0,84,0.00,,,0.00,VWS V14.01,2013-08-12 07:08:00,
2013-08-12 03:13:00,70.7,65.6,30.12,North,0,0.0,0.0,84,0.00,,,0.00,VWS V14.01,2013-08-12 07:13:00,
2013-08-12 03:18:00,70.7,66.0,30.12,North,0,0.0,0.0,85,0.00,,,0.00,VWS V14.01,2013-08-12 07:18:00,
2013-08-12 03:23:00,70.7,66.0,30.12,North,0,0.0,0.0,85,0.00,,,0.00,VWS V14.01,2013-08-12 07:23:00,
2013-08-12 03:28:00,70.7,66.3,30.12,North,0,0.0,0.0,86,0.00,,,0.00,VWS V14.01,2013-08-12 07:28:00,
2013-08-12 03:33:00,70.5,66.5,30.12,North,0,0.0,0.0,87,0.00,,,0.00,VWS V14.01,2013-08-12 07:33:00,
2013-08-12 03:38:00,70.5,66.5,30.12,North,0,0.0,0.0,87,0.00,,,0.00,VWS V14.01,2013-08-12 07:38:00,
2013-08-12 03:43:00,70.5,66.5,30.12,North,0,0.0,0.0,87,0.00,,,0.00,VWS V14.01,2013-08-12 07:43:00,
2013-08-12 03:48:00,70.3,66.6,30.12,North,0,0.0,0.0,88,0.00,,,0.00,VWS V14.01,2013-08-12 07:48:00,
2013-08-12 03:53:00,70.3,66.6,30.12,North,0,0.0,0.0,88,0.00,,,0.00,VWS V14.01,2013-08-12 07:53:00,
2013-08-12 03:58:00,70.3,66.6,30.12,North,0,0.0,0.0,88,0.00,,,0.00,VWS V14.01,2013-08-12 07:58:00,
2013-08-12 04:00:00,70.3,66.6,30.12,North,0,0.0,0.0,88,0.00,,-RA,0.00,VWS V14.01,2013-08-12 08:00:00,
2013-08-12 04:03:00,70.3,66.9,30.12,North,0,0.0,0.0,89,0.00,,,0.00,VWS V14.01,2013-08-12 08:03:00,
2013-08-12 04:08:00,70.2,66.8,30.12,North,0,0.0,0.0,89,0.00,,,0.00,VWS V14.01,2013-08-12 08:08:00,
2013-08-12 04:13:00,70.2,66.8,30.12,North,0,0.0,0.0,89,0.00,,,0.00,VWS V14.01,2013-08-12 08:13:00,
2013-08-12 04:18:00,70.2,66.8,30.12,North,0,0.0,0.0,89,0.00,,,0.00,VWS V14.01,2013-08-12 08:18:00,
2013-08-12 04:23:00,70.2,67.1,30.12,North,0,0.0,0.0,90,0.00,,,0.00,VWS V14.01,2013-08-12 08:23:00,
2013-08-12 04:28:00,70.0,66.9,30.12,North,0,0.0,0.0,90,0.00,,,0.00,VWS V14.01,2013-08-12 08:28:00,
2013-08-12 04:33:00,70.0,66.9,30.12,North,0,0.0,0.0,90,0.00,,,0.00,VWS V14.01,2013-08-12 08:33:00,
2013-08-12 04:38:00,70.0,66.9,30.12,North,0,0.0,0.0,90,0.00,,,0.00,VWS V14.01,2013-08-12 08:38:00,
2013-08-12 04:43:00,70.0,66.9,30.15,North,0,0.0,0.0,90,0.00,,,0.00,VWS V14.01,2013-08-12 08:43:00,
2013-08-12 04:48:00,69.8,66.7,30.15,North,0,0.0,0.0,90,0.00,,,0.00,VWS V14.01,2013-08-12 08:48:00,
2013-08-12 04:53:00,69.8,67.1,30.15,North,0,0.0,0.0,91,0.00,,,0.00,VWS V14.01,2013-08-12 08:53:00,
2013-08-12 04:58:00,69.8,66.7,30.12,North,0,0.0,0.0,90,0.00,,,0.00,VWS V14.01,2013-08-12 08:58:00,
2013-08-12 05:00:00,69.6,66.9,30.12,North,0,0.0,0.0,91,0.00,,-RA,0.00,VWS V14.01,2013-08-12 09:00:00,
2013-08-12 05:03:00,69.6,66.9,30.12,North,0,0.0,0.0,91,0.00,,BKN140,0.00,VWS V14.01,2013-08-12 09:03:00,
2013-08-12 05:08:00,69.6,67.2,30.12,North,0,0.0,0.0,92,0.00,,BKN140,0.00,VWS V14.01,2013-08-12 09:08:00,
2013-08-12 05:13:00,69.6,66.9,30.12,North,0,0.0,0.0,91,0.00,,BKN140,0.00,VWS V14.01,2013-08-12 09:13:00,
2013-08-12 05:18:00,69.6,66.9,30.12,North,0,0.0,0.0,91,0.00,,BKN140,0.00,VWS V14.01,2013-08-12 09:18:00,
2013-08-12 05:23:00,69.8,67.4,30.12,North,0,0.0,0.0,92,0.00,,BKN140,0.00,VWS V14.01,2013-08-12 09:23:00,
2013-08-12 05:28:00,69.8,67.4,30.12,North,0,0.0,0.0,92,0.00,,BKN140,0.00,VWS V14.01,2013-08-12 09:28:00,
2013-08-12 05:33:00,69.6,67.2,30.12,North,0,0.0,0.0,92,0.00,,BKN140,0.00,VWS V14.01,2013-08-12 09:33:00,
2013-08-12 05:38:00,69.6,66.9,30.12,North,0,0.0,0.0,91,0.00,,BKN140,0.00,VWS V14.01,2013-08-12 09:38:00,
2013-08-12 05:43:00,69.6,66.9,30.09,North,0,0.0,0.0,91,0.00,,BKN140,0.00,VWS V14.01,2013-08-12 09:43:00,
2013-08-12 05:48:00,69.6,66.9,30.09,North,0,0.0,0.0,91,0.00,,BKN140,0.00,VWS V14.01,2013-08-12 09:48:00,
2013-08-12 05:53:00,69.8,66.7,30.09,North,0,0.0,0.0,90,0.00,,BKN140,0.00,VWS V14.01,2013-08-12 09:53:00,
2013-08-12 05:58:00,69.8,66.7,30.09,North,0,0.0,0.0,90,0.00,,BKN140,0.00,VWS V14.01,2013-08-12 09:58:00,
2013-08-12 06:00:00,69.8,66.7,30.09,North,0,0.0,0.0,90,0.00,,-RA,0.00,VWS V14.01,2013-08-12 10:00:00,
2013-08-12 06:03:00,70.0,66.9,30.09,North,0,0.0,0.0,90,0.00,,BKN140,0.00,VWS V14.01,2013-08-12 10:03:00,
2013-08-12 06:08:00,70.0,66.9,30.09,North,0,0.0,0.0,90,0.00,,BKN140,0.00,VWS V14.01,2013-08-12 10:08:00,
2013-08-12 06:13:00,70.0,66.9,30.09,North,0,0.0,0.0,90,0.00,,BKN140,0.00,VWS V14.01,2013-08-12 10:13:00,
2013-08-12 06:18:00,70.0,66.9,30.09,North,0,0.0,0.0,90,0.00,,BKN130,0.00,VWS V14.01,2013-08-12 10:18:00,
2013-08-12 06:23:00,70.0,66.6,30.09,North,0,0.0,0.0,89,0.00,,BKN130,0.00,VWS V14.01,2013-08-12 10:23:00,
2013-08-12 06:28:00,70.0,66.6,30.09,North,0,0.0,0.0,89,0.00,,BKN130,0.00,VWS V14.01,2013-08-12 10:28:00,
2013-08-12 06:33:00,70.0,66.6,30.09,North,0,0.0,0.0,89,0.00,,BKN130,0.00,VWS V14.01,2013-08-12 10:33:00,
2013-08-12 06:38:00,70.2,66.8,30.09,North,0,0.0,0.0,89,0.00,,BKN130,0.00,VWS V14.01,2013-08-12 10:38:00,
2013-08-12 06:43:00,70.2,66.8,30.09,North,0,0.0,0.0,89,0.00,,BKN130,0.00,VWS V14.01,2013-08-12 10:43:00,
2013-08-12 06:48:00,70.2,66.8,30.09,North,0,0.0,0.0,89,0.00,,BKN130,0.00,VWS V14.01,2013-08-12 10:48:00,
2013-08-12 06:53:00,70.2,66.8,30.09,North,0,0.0,0.0,89,0.00,,BKN130,0.00,VWS V14.01,2013-08-12 10:53:00,
2013-08-12 06:58:00,70.2,66.8,30.06,North,0,0.0,0.0,89,0.00,,BKN130,0.00,VWS V14.01,2013-08-12 10:58:00,
2013-08-12 07:00:00,70.2,66.8,30.06,North,0,0.0,0.0,89,0.00,,-RA,0.00,VWS V14.01,2013-08-12 11:00:00,
2013-08-12 07:03:00,70.2,66.8,30.06,North,0,0.0,0.0,89,0.00,,BKN130,0.00,VWS V14.01,2013-08-12 11:03:00,
2013-08-12 07:08:00,70.2,67.1,30.06,North,0,0.0,0.0,90,0.00,,BKN130,0.00,VWS V14.01,2013-08-12 11:08:00,
2013-08-12 07:13:00,70.2,67.1,30.09,North,0,0.0,0.0,90,0.00,,BKN130,0.00,VWS V14.01,2013-08-12 11:13:00,
2013-08-12 07:18:00,70.2,67.1,30.09,North,0,0.0,0.0,90,0.00,,SCT045,0.00,VWS V14.01,2013-08-12 11:18:00,
2013-08-12 07:23:00,70.2,67.1,30.09,North,0,0.0,0.0,90,0.00,,SCT045,0.00,VWS V14.01,2013-08-12 11:23:00,
2013-08-12 07:28:00,70.2,67.7,30.09,North,0,0.0,0.0,92,0.00,,SCT045,0.00,VWS V14.01,2013-08-12 11:28:00,
2013-08-12 07:33:00,70.2,67.7,30.09,North,0,0.0,0.0,92,0.00,,SCT045,0.00,VWS V14.01,2013-08-12 11:33:00,
2013-08-12 07:38:00,70.2,67.7,30.09,North,0,0.0,0.0,92,0.00,,SCT045,0.00,VWS V14.01,2013-08-12 11:38:00,
2013-08-12 07:43:00,70.3,67.9,30.09,North,0,0.0,0.0,92,0.00,,SCT045,0.00,VWS V14.01,2013-08-12 11:43:00,
2013-08-12 07:48:00,70.5,68.4,30.09,North,0,0.0,0.0,93,0.00,,SCT045,0.00,VWS V14.01,2013-08-12 11:48:00,
2013-08-12 07:53:00,70.9,68.8,30.09,North,0,0.0,0.0,93,0.00,,SCT045,0.00,VWS V14.01,2013-08-12 11:53:00,
2013-08-12 07:58:00,71.2,69.1,30.09,North,0,0.0,0.0,93,0.00,,SCT045,0.00,VWS V14.01,2013-08-12 11:58:00,
2013-08-12 08:00:00,71.2,69.1,30.09,North,0,0.0,0.0,93,0.00,,BKN250,0.00,VWS V14.01,2013-08-12 12:00:00,
2013-08-12 08:03:00,71.6,69.2,30.09,North,0,0.0,0.0,92,0.00,,CLR,0.00,VWS V14.01,2013-08-12 12:03:00,
2013-08-12 08:08:00,71.8,69.0,30.09,North,0,0.0,0.0,91,0.00,,CLR,0.00,VWS V14.01,2013-08-12 12:08:00,
2013-08-12 08:13:00,72.0,69.2,30.09,North,0,0.0,0.0,91,0.00,,CLR,0.00,VWS V14.01,2013-08-12 12:13:00,
2013-08-12 08:18:00,72.3,69.2,30.09,North,0,0.0,0.0,90,0.00,,CLR,0.00,VWS V14.01,2013-08-12 12:18:00,
2013-08-12 08:23:00,72.5,69.1,30.09,North,0,0.0,0.0,89,0.00,,CLR,0.00,VWS V14.01,2013-08-12 12:23:00,
2013-08-12 08:28:00,72.7,68.9,30.09,North,0,0.0,0.0,88,0.00,,CLR,0.00,VWS V14.01,2013-08-12 12:28:00,
2013-08-12 08:33:00,73.0,69.3,30.09,North,0,0.0,0.0,88,0.00,,CLR,0.00,VWS V14.01,2013-08-12 12:33:00,
2013-08-12 08:38:00,73.4,69.0,30.09,North,0,0.0,0.0,86,0.00,,CLR,0.00,VWS V14.01,2013-08-12 12:38:00,
2013-08-12 08:43:00,73.6,68.8,30.09,North,0,0.0,0.0,85,0.00,,CLR,0.00,VWS V14.01,2013-08-12 12:43:00,
2013-08-12 08:48:00,73.8,67.9,30.09,North,0,0.0,0.0,82,0.00,,CLR,0.00,VWS V14.01,2013-08-12 12:48:00,
2013-08-12 08:53:00,73.9,67.8,30.09,North,0,0.0,0.0,81,0.00,,CLR,0.00,VWS V14.01,2013-08-12 12:53:00,
2013-08-12 08:58:00,74.1,67.6,30.09,North,0,0.0,0.0,80,0.00,,CLR,0.00,VWS V14.01,2013-08-12 12:58:00,
2013-08-12 09:00:00,74.1,67.6,30.09,North,0,0.0,0.0,80,0.00,,-RA,0.00,VWS V14.01,2013-08-12 13:00:00,
2013-08-12 09:03:00,74.5,67.9,30.09,North,0,0.0,0.0,80,0.00,,FEW031,0.00,VWS V14.01,2013-08-12 13:03:00,
2013-08-12 09:08:00,74.7,67.3,30.09,North,0,0.0,0.0,78,0.00,,FEW031,0.00,VWS V14.01,2013-08-12 13:08:00,
2013-08-12 09:13:00,74.8,67.5,30.09,North,0,0.0,0.0,78,0.00,,FEW031,0.00,VWS V14.01,2013-08-12 13:13:00,
2013-08-12 09:18:00,74.8,67.2,30.09,North,0,0.0,0.0,77,0.00,,FEW031,0.00,VWS V14.01,2013-08-12 13:18:00,
2013-08-12 09:23:00,75.2,67.5,30.09,North,0,0.0,0.0,77,0.00,,FEW031,0.00,VWS V14.01,2013-08-12 13:23:00,
2013-08-12 09:28:00,75.2,66.7,30.06,North,0,0.0,0.0,75,0.00,,FEW031,0.00,VWS V14.01,2013-08-12 13:28:00,
2013-08-12 09:33:00,75.7,67.3,30.06,North,0,0.0,0.0,75,0.00,,FEW031,0.00,VWS V14.01,2013-08-12 13:33:00,
2013-08-12 09:38:00,75.9,66.7,30.06,North,0,0.0,0.0,73,0.00,,FEW031,0.00,VWS V14.01,2013-08-12 13:38:00,
2013-08-12 09:43:00,76.3,67.0,30.09,NNE,22,0.0,0.0,73,0.00,,FEW031,0.00,VWS V14.01,2013-08-12 13:43:00,
2013-08-12 09:48:00,76.5,66.0,30.09,NNE,22,0.0,0.0,70,0.00,,FEW031,0.00,VWS V14.01,2013-08-12 13:48:00,
2013-08-12 09:53:00,76.8,66.3,30.09,NNE,22,0.0,0.0,70,0.00,,FEW031,0.00,VWS V14.01,2013-08-12 13:53:00,
2013-08-12 09:58:00,77.2,65.8,30.06,North,0,0.0,0.0,68,0.00,,FEW031,0.00,VWS V14.01,2013-08-12 13:58:00,
2013-08-12 10:00:00,77.2,65.8,30.06,North,0,0.0,0.0,68,0.00,,-RA,0.00,VWS V14.01,2013-08-12 14:00:00,
2013-08-12 10:03:00,77.4,66.0,30.06,North,0,0.0,0.0,68,0.00,,FEW031,0.00,VWS V14.01,2013-08-12 14:03:00,
2013-08-12 10:08:00,77.7,66.3,30.06,North,0,0.0,0.0,68,0.00,,FEW031,0.00,VWS V14.01,2013-08-12 14:08:00,
2013-08-12 10:13:00,78.1,66.2,30.06,NNE,22,0.0,0.0,67,0.00,,FEW031,0.00,VWS V14.01,2013-08-12 14:13:00,
2013-08-12 10:18:00,78.3,66.4,30.06,SW,225,0.0,0.0,67,0.00,,SCT046,0.00,VWS V14.01,2013-08-12 14:18:00,
2013-08-12 10:24:00,78.6,65.9,30.06,SW,225,0.0,0.0,65,0.00,,SCT046,0.00,VWS V14.01,2013-08-12 14:24:00,
2013-08-12 10:29:00,78.8,65.2,30.09,SW,225,0.0,0.0,63,0.00,,SCT046,0.00,VWS V14.01,2013-08-12 14:29:00,
2013-08-12 10:34:00,79.0,65.3,30.09,SW,225,0.0,0.0,63,0.00,,SCT046,0.00,VWS V14.01,2013-08-12 14:34:00,
2013-08-12 10:39:00,79.2,65.0,30.09,SW,225,0.0,0.0,62,0.00,,SCT046,0.00,VWS V14.01,2013-08-12 14:39:00,
2013-08-12 10:44:00,79.2,64.6,30.06,SW,225,0.0,0.0,61,0.00,,SCT046,0.00,VWS V14.01,2013-08-12 14:44:00,
2013-08-12 10:49:00,79.3,64.7,30.06,SSW,202,0.0,0.0,61,0.00,,BKN034,0.00,VWS V14.01,2013-08-12 14:49:00,
2013-08-12 10:54:00,79.5,64.0,30.06,SSW,202,0.0,0.0,59,0.00,,BKN034,0.00,VWS V14.01,2013-08-12 14:54:00,
2013-08-12 10:59:00,80.2,64.6,30.09,SSW,202,0.0,0.0,59,0.00,,BKN034,0.00,VWS V14.01,2013-08-12 14:59:00,
2013-08-12 11:00:00,80.2,64.6,30.09,SSW,202,0.0,0.0,59,0.00,,-RA,0.00,VWS V14.01,2013-08-12 15:00:00,
2013-08-12 11:04:00,81.0,64.8,30.09,SSW,202,0.0,0.0,58,0.00,,BKN032,0.00,VWS V14.01,2013-08-12 15:04:00,
2013-08-12 11:09:00,81.1,65.5,30.09,SSW,202,0.0,0.0,59,0.00,,BKN032,0.00,VWS V14.01,2013-08-12 15:09:00,
2013-08-12 11:14:00,81.3,64.7,30.09,SSW,202,0.0,0.0,57,0.00,,BKN032,0.00,VWS V14.01,2013-08-12 15:14:00,
2013-08-12 11:19:00,81.3,64.1,30.09,SSW,202,0.0,0.0,56,0.00,,OVC025,0.00,VWS V14.01,2013-08-12 15:19:00,
2013-08-12 11:24:00,81.3,63.6,30.09,SSW,202,0.0,0.0,55,0.00,,OVC025,0.00,VWS V14.01,2013-08-12 15:24:00,
2013-08-12 11:29:00,81.3,64.1,30.09,SSW,202,0.0,0.0,56,0.00,,OVC025,0.00,VWS V14.01,2013-08-12 15:29:00,
2013-08-12 11:34:00,81.7,65.0,30.09,SSW,202,0.0,0.0,57,0.00,,BKN025,0.00,VWS V14.01,2013-08-12 15:34:00,
2013-08-12 11:39:00,81.7,65.0,30.09,SW,225,0.0,0.0,57,0.00,,BKN025,0.00,VWS V14.01,2013-08-12 15:39:00,
2013-08-12 11:44:00,81.5,64.8,30.09,SW,225,0.0,0.0,57,0.00,,BKN025,0.00,VWS V14.01,2013-08-12 15:44:00,
2013-08-12 11:49:00,81.1,64.5,30.09,SW,225,0.0,0.0,57,0.00,,BKN025,0.00,VWS V14.01,2013-08-12 15:49:00,
2013-08-12 11:54:00,80.8,64.1,30.09,SW,225,0.0,0.0,57,0.00,,BKN025,0.00,VWS V14.01,2013-08-12 15:54:00,
2013-08-12 11:59:00,80.6,64.5,30.06,SSW,202,0.0,0.0,58,0.00,,BKN025,0.00,VWS V14.01,2013-08-12 15:59:00,
2013-08-12 12:00:00,80.6,64.5,30.06,SSW,202,0.0,0.0,58,0.00,,-RA,0.00,VWS V14.01,2013-08-12 16:00:00,
2013-08-12 12:04:00,80.6,65.0,30.06,SSW,202,0.0,0.0,59,0.00,,OVC023,0.00,VWS V14.01,2013-08-12 16:04:00,
2013-08-12 12:09:00,81.0,65.3,30.06,SSW,202,0.0,0.0,59,0.00,,OVC023,0.00,VWS V14.01,2013-08-12 16:09:00,
2013-08-12 12:14:00,81.1,65.9,30.09,SSW,202,0.0,0.0,60,0.00,,OVC023,0.00,VWS V14.01,2013-08-12 16:14:00,
2013-08-12 12:19:00,80.8,66.1,30.09,SSW,202,0.0,0.0,61,0.00,,OVC045,0.00,VWS V14.01,2013-08-12 16:19:00,
2013-08-12 12:24:00,80.4,66.2,30.09,SSW,202,0.0,0.0,62,0.00,,OVC045,0.00,VWS V14.01,2013-08-12 16:24:00,
2013-08-12 12:29:00,80.2,66.1,30.09,SSW,202,0.0,0.0,62,0.00,,OVC045,0.00,VWS V14.01,2013-08-12 16:29:00,
2013-08-12 12:34:00,80.4,66.7,30.09,SSW,202,0.0,0.0,63,0.00,,OVC045,0.00,VWS V14.01,2013-08-12 16:34:00,
2013-08-12 12:39:00,80.6,67.3,30.09,SSW,202,0.0,0.0,64,0.00,,OVC045,0.00,VWS V14.01,2013-08-12 16:39:00,
2013-08-12 12:44:00,80.6,67.3,30.09,South,180,0.0,0.0,64,0.00,,OVC045,0.00,VWS V14.01,2013-08-12 16:44:00,
2013-08-12 12:49:00,80.6,67.3,30.09,SSW,202,0.0,0.0,64,0.00,,BKN050,0.00,VWS V14.01,2013-08-12 16:49:00,
2013-08-12 12:54:00,81.1,68.3,30.09,SSW,202,0.0,0.0,65,0.00,,BKN050,0.00,VWS V14.01,2013-08-12 16:54:00,
2013-08-12 12:59:00,81.5,68.2,30.06,SSE,158,0.0,0.0,64,0.00,,BKN050,0.00,VWS V14.01,2013-08-12 16:59:00,
2013-08-12 13:00:00,81.5,68.2,30.06,South,180,0.0,0.0,64,0.00,,-RA,0.00,VWS V14.01,2013-08-12 17:00:00,
2013-08-12 13:04:00,81.5,68.6,30.06,SSW,202,0.0,0.0,65,0.00,,BKN050,0.00,VWS V14.01,2013-08-12 17:04:00,
2013-08-12 13:09:00,81.7,68.3,30.06,South,180,0.0,0.0,64,0.00,,BKN050,0.00,VWS V14.01,2013-08-12 17:09:00,
2013-08-12 13:14:00,82.0,69.1,30.06,SSW,202,0.0,0.0,65,0.00,,BKN050,0.00,VWS V14.01,2013-08-12 17:14:00,
2013-08-12 13:19:00,82.2,69.3,30.06,South,180,0.0,0.0,65,0.00,,BKN050,0.00,VWS V14.01,2013-08-12 17:19:00,
2013-08-12 13:24:00,82.8,69.3,30.06,ENE,68,0.0,0.0,64,0.00,,BKN050,0.00,VWS V14.01,2013-08-12 17:24:00,
2013-08-12 13:29:00,83.5,70.0,30.06,SW,225,0.0,0.0,64,0.00,,BKN050,0.00,VWS V14.01,2013-08-12 17:29:00,
2013-08-12 13:34:00,83.7,69.7,30.06,WSW,248,0.0,0.0,63,0.00,,BKN220,0.00,VWS V14.01,2013-08-12 17:34:00,
2013-08-12 13:39:00,84.2,69.8,30.06,SSW,202,0.0,0.0,62,0.00,,BKN220,0.00,VWS V14.01,2013-08-12 17:39:00,
2013-08-12 13:44:00,85.5,71.0,30.06,SSW,202,1.6,3.1,62,0.00,,BKN220,0.00,VWS V14.01,2013-08-12 17:44:00,
2013-08-12 13:49:00,86.2,70.2,30.06,SSW,202,2.5,3.8,59,0.00,,BKN220,0.00,VWS V14.01,2013-08-12 17:49:00,
2013-08-12 13:54:00,86.0,68.0,30.06,SSW,202,2.7,5.4,55,0.00,,BKN220,0.00,VWS V14.01,2013-08-12 17:54:00,
2013-08-12 13:59:00,85.3,67.3,30.03,South,180,3.4,5.4,55,0.00,,BKN220,0.00,VWS V14.01,2013-08-12 17:59:00,
2013-08-12 14:00:00,85.1,67.1,30.03,SSE,158,2.5,5.4,55,0.00,,-RA,0.00,VWS V14.01,2013-08-12 18:00:00,
2013-08-12 14:04:00,84.7,66.8,30.03,SSW,202,2.5,3.1,55,0.00,,BKN200,0.00,VWS V14.01,2013-08-12 18:04:00,
2013-08-12 14:09:00,84.2,67.3,30.03,South,180,1.3,3.1,57,0.00,,BKN200,0.00,VWS V14.01,2013-08-12 18:09:00,
2013-08-12 14:14:00,84.7,69.3,30.03,South,180,0.0,3.1,60,0.00,,BKN200,0.00,VWS V14.01,2013-08-12 18:14:00,
2013-08-12 14:19:00,86.4,70.3,30.03,SSE,158,3.1,3.1,59,0.00,,BKN200,0.00,VWS V14.01,2013-08-12 18:19:00,
2013-08-12 14:24:00,87.8,71.2,30.03,South,180,2.5,5.4,58,0.00,,BKN200,0.00,VWS V14.01,2013-08-12 18:24:00,
2013-08-12 14:29:00,89.1,70.8,30.03,SSW,202,1.6,5.4,55,0.00,,BKN200,0.00,VWS V14.01,2013-08-12 18:29:00,
2013-08-12 14:34:00,89.2,69.9,30.03,South,180,2.9,5.4,53,0.00,,BKN200,0.00,VWS V14.01,2013-08-12 18:34:00,
2013-08-12 14:39:00,89.2,67.0,30.03,South,180,1.3,5.4,48,0.00,,BKN200,0.00,VWS V14.01,2013-08-12 18:39:00,
2013-08-12 14:44:00,89.2,67.6,30.03,SW,225,2.0,5.4,49,0.00,,BKN200,0.00,VWS V14.01,2013-08-12 18:44:00,
2013-08-12 14:49:00,89.4,66.6,30.03,SW,225,2.2,5.4,47,0.00,,BKN031,0.00,VWS V14.01,2013-08-12 18:49:00,
2013-08-12 14:54:00,88.9,63.5,30.03,SSW,202,2.9,5.4,43,0.00,,BKN031,0.00,VWS V14.01,2013-08-12 18:54:00,
2013-08-12 14:59:00,88.2,64.2,30.03,SSW,202,2.2,5.4,45,0.00,,BKN031,0.00,VWS V14.01,2013-08-12 18:59:00,
2013-08-12 15:00:00,88.2,64.2,30.03,SSW,202,2.0,5.4,45,0.00,,-RA,0.00,VWS V14.01,2013-08-12 19:00:00,
2013-08-12 15:04:00,87.1,63.8,30.03,South,180,2.2,3.6,46,0.00,,BKN034,0.00,VWS V14.01,2013-08-12 19:04:00,
2013-08-12 15:09:00,86.4,63.2,30.03,SSW,202,2.5,3.6,46,0.00,,BKN034,0.00,VWS V14.01,2013-08-12 19:09:00,
2013-08-12 15:14:00,85.6,63.7,30.00,SW,225,1.1,3.6,48,0.00,,BKN034,0.00,VWS V14.01,2013-08-12 19:14:00,
2013-08-12 15:19:00,84.4,58.1,30.00,West,270,7.6,10.5,41,0.00,,BKN034,0.00,VWS V14.01,2013-08-12 19:19:00,
2013-08-12 15:24:00,79.9,59.0,30.00,North,0,12.3,12.3,49,0.12,,BKN034,0.12,VWS V14.01,2013-08-12 19:24:00,
2013-08-12 15:29:00,75.0,61.1,30.03,NNW,338,10.1,12.3,62,0.42,,BKN034,0.42,VWS V14.01,2013-08-12 19:29:00,
2013-08-12 15:34:00,73.8,65.3,30.03,NNE,22,0.0,12.3,75,0.66,,BKN034,0.66,VWS V14.01,2013-08-12 19:34:00,
2013-08-12 15:39:00,73.4,66.9,30.03,WSW,248,0.0,12.3,80,0.70,,BKN034,0.70,VWS V14.01,2013-08-12 19:39:00,
2013-08-12 15:44:00,73.4,69.6,30.03,WSW,248,0.0,12.3,88,0.70,,BKN034,0.70,VWS V14.01,2013-08-12 19:44:00,
2013-08-12 15:49:00,73.6,71.4,30.03,WSW,248,0.0,12.3,93,0.70,,BKN034,0.70,VWS V14.01,2013-08-12 19:49:00,
2013-08-12 15:54:00,73.8,71.9,30.03,ENE,68,0.0,12.3,94,0.70,,BKN034,0.70,VWS V14.01,2013-08-12 19:54:00,
2013-08-12 15:59:00,73.6,72.1,30.03,NNW,338,0.0,0.0,95,0.70,,BKN034,0.70,VWS V14.01,2013-08-12 19:59:00,
2013-08-12 16:00:00,73.6,72.1,30.03,North,0,0.0,12.3,95,0.70,,-RA,0.70,VWS V14.01,2013-08-12 20:00:00,
2013-08-12 16:04:00,73.4,72.2,30.03,NNW,338,0.0,0.0,96,0.70,,BKN034,0.70,VWS V14.01,2013-08-12 20:04:00,
2013-08-12 16:09:00,73.6,72.7,30.03,NNW,338,0.0,0.0,97,0.70,,BKN034,0.70,VWS V14.01,2013-08-12 20:09:00,
2013-08-12 16:14:00,73.6,73.0,30.03,NNW,338,0.0,0.0,98,0.70,,BKN034,0.70,VWS V14.01,2013-08-12 20:14:00,
2013-08-12 16:19:00,73.6,73.0,30.03,NNE,22,0.0,0.0,98,0.70,,BKN037,0.70,VWS V14.01,2013-08-12 20:19:00,
2013-08-12 16:24:00,73.6,73.0,30.03,NNW,338,0.0,0.0,98,0.70,,BKN037,0.70,VWS V14.01,2013-08-12 20:24:00,
2013-08-12 16:29:00,73.6,73.0,30.03,NNW,338,0.0,0.0,98,0.70,,BKN037,0.70,VWS V14.01,2013-08-12 20:29:00,
2013-08-12 16:34:00,73.6,73.0,30.03,NNW,338,0.0,0.0,98,0.70,,BKN037,0.70,VWS V14.01,2013-08-12 20:34:00,
2013-08-12 16:39:00,73.4,72.8,30.03,NNW,338,0.0,0.0,98,0.70,,BKN037,0.70,VWS V14.01,2013-08-12 20:39:00,
2013-08-12 16:44:00,73.4,72.8,30.03,NNW,338,0.0,0.0,98,0.70,,BKN037,0.70,VWS V14.01,2013-08-12 20:44:00,
2013-08-12 16:49:00,73.6,73.0,30.00,NNW,338,0.0,0.0,98,0.70,,BKN037,0.70,VWS V14.01,2013-08-12 20:49:00,
2013-08-12 16:54:00,73.6,73.0,30.00,NNW,338,0.0,0.0,98,0.70,,BKN037,0.70,VWS V14.01,2013-08-12 20:54:00,
2013-08-12 16:59:00,73.6,73.0,30.00,NNW,338,0.0,0.0,98,0.00,,BKN037,0.70,VWS V14.01,2013-08-12 20:59:00,
2013-08-12 17:00:00,73.6,73.0,30.00,NNW,338,0.0,0.0,98,0.70,,-RA,0.70,VWS V14.01,2013-08-12 21:00:00,
2013-08-12 17:04:00,73.4,72.8,30.00,NNW,338,0.0,0.0,98,0.00,,,0.70,VWS V14.01,2013-08-12 21:04:00,
2013-08-12 17:09:00,73.6,73.0,30.00,NNW,338,0.0,0.0,98,0.00,,,0.70,VWS V14.01,2013-08-12 21:09:00,
2013-08-12 17:14:00,73.8,73.2,30.00,NNW,338,0.0,0.0,98,0.00,,,0.70,VWS V14.01,2013-08-12 21:14:00,
2013-08-12 17:19:00,73.8,73.2,30.00,NNW,338,0.0,0.0,98,0.00,,BKN038,0.70,VWS V14.01,2013-08-12 21:19:00,
2013-08-12 17:24:00,73.9,73.3,30.00,NNW,338,0.0,0.0,98,0.00,,BKN038,0.70,VWS V14.01,2013-08-12 21:24:00,
2013-08-12 17:29:00,73.9,73.3,29.97,NNW,338,0.0,0.0,98,0.00,,BKN038,0.70,VWS V14.01,2013-08-12 21:29:00,
2013-08-12 17:34:00,73.8,73.2,29.97,NNW,338,0.0,0.0,98,0.00,,OVC037,0.70,VWS V14.01,2013-08-12 21:34:00,
2013-08-12 17:39:00,73.9,73.3,29.97,NNW,338,0.0,0.0,98,0.05,,OVC037,0.75,VWS V14.01,2013-08-12 21:39:00,
2013-08-12 17:44:00,73.9,73.3,30.00,NNW,338,0.0,0.0,98,0.05,,OVC037,0.75,VWS V14.01,2013-08-12 21:44:00,
2013-08-12 17:49:00,74.1,73.5,30.00,NNW,338,0.0,0.0,98,0.05,,OVC037,0.75,VWS V14.01,2013-08-12 21:49:00,
2013-08-12 17:54:00,74.3,73.7,30.00,NNW,338,0.0,0.0,98,0.05,,OVC037,0.75,VWS V14.01,2013-08-12 21:54:00,
2013-08-12 17:59:00,74.5,73.9,29.97,NNW,338,0.0,0.0,98,0.05,,OVC037,0.75,VWS V14.01,2013-08-12 21:59:00,
2013-08-12 18:00:00,74.5,73.9,29.97,NNW,338,0.0,0.0,98,0.05,,-RA,0.75,VWS V14.01,2013-08-12 22:00:00,
2013-08-12 18:04:00,74.5,73.9,29.97,WSW,248,0.0,0.0,98,0.05,,,0.75,VWS V14.01,2013-08-12 22:04:00,
2013-08-12 18:09:00,74.8,74.2,29.97,SW,225,0.0,0.0,98,0.05,,,0.75,VWS V14.01,2013-08-12 22:09:00,
2013-08-12 18:14:00,74.8,74.2,30.00,SSW,202,0.0,0.0,98,0.05,,,0.75,VWS V14.01,2013-08-12 22:14:00,
2013-08-12 18:19:00,74.8,74.2,30.00,SSW,202,0.0,0.0,98,0.05,,BKN110,0.75,VWS V14.01,2013-08-12 22:19:00,
2013-08-12 18:24:00,75.0,74.4,30.00,SSW,202,0.0,0.0,98,0.05,,BKN110,0.75,VWS V14.01,2013-08-12 22:24:00,
2013-08-12 18:29:00,75.0,74.4,29.97,SSW,202,0.0,0.0,98,0.05,,BKN110,0.75,VWS V14.01,2013-08-12 22:29:00,
2013-08-12 18:34:00,75.2,74.6,29.97,WSW,248,0.0,0.0,98,0.05,,BKN110,0.75,VWS V14.01,2013-08-12 22:34:00,
2013-08-12 18:39:00,75.2,74.6,29.97,SW,225,0.0,0.0,98,0.05,,BKN110,0.75,VWS V14.01,2013-08-12 22:39:00,
2013-08-12 18:44:00,75.0,74.4,29.97,SSW,202,0.0,0.0,98,0.05,,BKN110,0.75,VWS V14.01,2013-08-12 22:44:00,
2013-08-12 18:49:00,75.0,74.4,29.97,SSW,202,0.0,0.0,98,0.05,,BKN110,0.75,VWS V14.01,2013-08-12 22:49:00,
2013-08-12 18:54:00,75.0,74.4,29.97,SSW,202,0.0,0.0,98,0.05,,BKN110,0.75,VWS V14.01,2013-08-12 22:54:00,
2013-08-12 18:59:00,74.8,74.2,29.97,SSW,202,0.0,0.0,98,0.05,,BKN110,0.75,VWS V14.01,2013-08-12 22:59:00,
2013-08-12 19:00:00,74.8,74.2,29.97,SSW,202,0.0,0.0,98,0.05,,-RA,0.75,VWS V14.01,2013-08-12 23:00:00,
2013-08-12 19:04:00,74.8,74.2,29.97,SSW,202,0.0,0.0,98,0.00,,BKN110,0.75,VWS V14.01,2013-08-12 23:04:00,
2013-08-12 19:09:00,74.7,74.1,29.97,SSW,202,0.0,0.0,98,0.00,,BKN110,0.75,VWS V14.01,2013-08-12 23:09:00,
2013-08-12 19:14:00,74.5,73.9,29.97,SSW,202,0.0,0.0,98,0.00,,BKN110,0.75,VWS V14.01,2013-08-12 23:14:00,
2013-08-12 19:19:00,74.3,73.7,29.97,SSW,202,0.0,0.0,98,0.00,,OVC200,0.75,VWS V14.01,2013-08-12 23:19:00,
2013-08-12 19:24:00,74.3,73.7,29.97,SSW,202,0.0,0.0,98,0.00,,OVC200,0.75,VWS V14.01,2013-08-12 23:24:00,
2013-08-12 19:29:00,74.1,73.5,29.97,SW,225,0.0,0.0,98,0.00,,OVC200,0.75,VWS V14.01,2013-08-12 23:29:00,
2013-08-12 19:34:00,73.9,73.3,29.97,SW,225,0.0,0.0,98,0.00,,-RA,0.75,VWS V14.01,2013-08-12 23:34:00,
2013-08-12 19:39:00,73.8,73.2,29.97,SW,225,0.0,0.0,98,0.00,,-RA,0.75,VWS V14.01,2013-08-12 23:39:00,
2013-08-12 19:44:00,73.8,73.2,29.97,SSW,202,0.0,0.0,98,0.00,,-RA,0.75,VWS V14.01,2013-08-12 23:44:00,
2013-08-12 19:49:00,73.6,73.0,29.97,SW,225,0.0,0.0,98,0.00,,-RA,0.75,VWS V14.01,2013-08-12 23:49:00,
2013-08-12 19:54:00,73.6,73.0,29.97,SW,225,0.0,0.0,98,0.00,,-RA,0.75,VWS V14.01,2013-08-12 23:54:00,
2013-08-12 19:59:00,73.4,72.8,30.00,South,180,0.0,0.0,98,0.00,,-RA,0.75,VWS V14.01,2013-08-12 23:59:00,
2013-08-12 20:00:00,73.4,72.8,30.00,South,180,0.0,0.0,98,0.00,,-RA,0.75,VWS V14.01,2013-08-13 00:00:00,
2013-08-12 20:04:00,73.4,72.8,30.00,WSW,248,0.0,0.0,98,0.00,,RA,0.75,VWS V14.01,2013-08-13 00:04:00,
2013-08-12 20:09:00,73.4,72.8,30.00,SSW,202,0.0,0.0,98,0.00,,RA,0.75,VWS V14.01,2013-08-13 00:09:00,
2013-08-12 20:14:00,73.2,72.6,29.97,SSW,202,0.0,0.0,98,0.00,,RA,0.75,VWS V14.01,2013-08-13 00:14:00,
2013-08-12 20:19:00,73.2,72.6,29.97,SSW,202,0.0,0.0,98,0.00,,RA,0.75,VWS V14.01,2013-08-13 00:19:00,
2013-08-12 20:24:00,73.2,72.6,29.97,SSW,202,0.0,0.0,98,0.00,,RA,0.75,VWS V14.01,2013-08-13 00:24:00,
2013-08-12 20:29:00,73.2,72.6,29.97,SSW,202,0.0,0.0,98,0.00,,RA,0.75,VWS V14.01,2013-08-13 00:29:00,
2013-08-12 20:34:00,73.2,72.6,29.97,SSW,202,0.0,0.0,98,0.00,,RA,0.75,VWS V14.01,2013-08-13 00:34:00,
2013-08-12 20:39:00,73.0,72.4,29.97,SSE,158,0.0,0.0,98,0.00,,RA,0.75,VWS V14.01,2013-08-13 00:39:00,
2013-08-12 20:44:00,73.0,72.4,29.97,SSE,158,0.0,0.0,98,0.00,,RA,0.75,VWS V14.01,2013-08-13 00:44:00,
2013-08-12 20:49:00,73.0,72.4,29.97,SSE,158,0.0,0.0,98,0.00,,RA,0.75,VWS V14.01,2013-08-13 00:49:00,
2013-08-12 20:54:00,72.9,72.3,29.97,SSE,158,0.0,0.0,98,0.00,,RA,0.75,VWS V14.01,2013-08-13 00:54:00,
2013-08-12 20:59:00,72.7,72.1,29.97,SSE,158,0.0,0.0,98,0.00,,RA,0.75,VWS V14.01,2013-08-13 00:59:00,
2013-08-12 21:00:00,72.7,72.1,29.97,SSE,158,0.0,0.0,98,0.00,,-RA,0.75,VWS V14.01,2013-08-13 01:00:00,
2013-08-12 21:04:00,72.7,72.1,29.97,SSE,158,0.0,0.0,98,0.00,,RA,0.75,VWS V14.01,2013-08-13 01:04:00,
2013-08-12 21:09:00,72.5,71.9,29.97,SSE,158,0.0,0.0,98,0.00,,RA,0.75,VWS V14.01,2013-08-13 01:09:00,
2013-08-12 21:14:00,72.5,71.9,29.97,SSE,158,0.0,0.0,98,0.00,,RA,0.75,VWS V14.01,2013-08-13 01:14:00,
2013-08-12 21:19:00,72.5,71.9,29.97,South,180,0.0,0.0,98,0.00,,,0.75,VWS V14.01,2013-08-13 01:19:00,
2013-08-12 21:24:00,72.3,71.7,29.97,South,180,0.0,0.0,98,0.00,,,0.75,VWS V14.01,2013-08-13 01:24:00,
2013-08-12 21:29:00,72.3,71.7,29.97,South,180,0.0,0.0,98,0.00,,,0.75,VWS V14.01,2013-08-13 01:29:00,
2013-08-12 21:34:00,72.1,71.6,29.97,South,180,0.0,0.0,98,0.00,,,0.75,VWS V14.01,2013-08-13 01:34:00,
2013-08-12 21:39:00,72.1,71.6,29.97,South,180,0.0,0.0,98,0.00,,,0.75,VWS V14.01,2013-08-13 01:39:00,
2013-08-12 21:44:00,72.0,71.4,29.97,South,180,0.0,0.0,98,0.00,,,0.75,VWS V14.01,2013-08-13 01:44:00,
2013-08-12 21:49:00,72.0,71.4,29.97,South,180,0.0,0.0,98,0.00,,,0.75,VWS V14.01,2013-08-13 01:49:00,
2013-08-12 21:54:00,72.0,71.4,29.97,South,180,0.0,0.0,98,0.00,,,0.75,VWS V14.01,2013-08-13 01:54:00,
2013-08-12 21:59:00,72.0,71.4,29.94,SSW,202,0.0,0.0,98,0.00,,,0.75,VWS V14.01,2013-08-13 01:59:00,
2013-08-12 22:00:00,72.0,71.4,29.94,SSW,202,0.0,0.0,98,0.00,,-RA,0.75,VWS V14.01,2013-08-13 02:00:00,
2013-08-12 22:04:00,71.8,71.2,29.94,South,180,0.0,0.0,98,0.00,,,0.75,VWS V14.01,2013-08-13 02:04:00,
2013-08-12 22:09:00,71.8,71.2,29.94,South,180,0.0,0.0,98,0.00,,,0.75,VWS V14.01,2013-08-13 02:09:00,
2013-08-12 22:14:00,71.6,71.0,29.97,SSW,202,0.0,0.0,98,0.00,,,0.75,VWS V14.01,2013-08-13 02:14:00,
2013-08-12 22:19:00,71.6,71.0,29.97,SSW,202,0.0,0.0,98,0.00,,,0.75,VWS V14.01,2013-08-13 02:19:00,
2013-08-12 22:24:00,71.4,70.8,29.97,SSW,202,0.0,0.0,98,0.00,,,0.75,VWS V14.01,2013-08-13 02:24:00,
2013-08-12 22:29:00,71.4,70.8,29.97,SSW,202,0.0,0.0,98,0.00,,,0.75,VWS V14.01,2013-08-13 02:29:00,
2013-08-12 22:34:00,71.4,70.8,29.97,SSW,202,0.0,0.0,98,0.00,,,0.75,VWS V14.01,2013-08-13 02:34:00,
2013-08-12 22:39:00,71.4,70.8,29.97,SSW,202,0.0,0.0,98,0.00,,,0.75,VWS V14.01,2013-08-13 02:39:00,
2013-08-12 22:44:00,71.4,70.8,29.97,SSW,202,0.0,0.0,98,0.00,,,0.75,VWS V14.01,2013-08-13 02:44:00,
2013-08-12 22:49:00,71.4,70.8,29.97,SSW,202,0.0,0.0,98,0.00,,,0.75,VWS V14.01,2013-08-13 02:49:00,
2013-08-12 22:54:00,71.4,70.8,29.97,SSW,202,0.0,0.0,98,0.00,,,0.75,VWS V14.01,2013-08-13 02:54:00,
2013-08-12 22:59:00,71.4,70.8,29.97,SSW,202,0.0,0.0,98,0.00,,,0.75,VWS V14.01,2013-08-13 02:59:00,
2013-08-12 23:00:00,71.4,70.8,29.97,SSW,202,0.0,0.0,98,0.00,,-RA,0.75,VWS V14.01,2013-08-13 03:00:00,
2013-08-12 23:04:00,71.6,71.0,29.97,SSW,202,0.0,0.0,98,0.00,,OVC120,0.75,VWS V14.01,2013-08-13 03:04:00,
2013-08-12 23:09:00,71.6,71.0,29.97,SSW,202,0.0,0.0,98,0.00,,OVC120,0.75,VWS V14.01,2013-08-13 03:09:00,
2013-08-12 23:14:00,71.6,71.0,29.97,SSW,202,0.0,0.0,98,0.00,,OVC120,0.75,VWS V14.01,2013-08-13 03:14:00,
2013-08-12 23:19:00,71.4,70.8,29.97,ESE,112,0.0,0.0,98,0.00,,OVC120,0.75,VWS V14.01,2013-08-13 03:19:00,
2013-08-12 23:24:00,71.4,70.8,29.97,ESE,112,0.0,0.0,98,0.00,,OVC120,0.75,VWS V14.01,2013-08-13 03:24:00,
2013-08-12 23:29:00,71.4,70.8,29.97,ESE,112,0.0,0.0,98,0.00,,OVC120,0.75,VWS V14.01,2013-08-13 03:29:00,
2013-08-12 23:34:00,71.4,70.8,29.97,ESE,112,0.0,0.0,98,0.00,,OVC120,0.75,VWS V14.01,2013-08-13 03:34:00,
2013-08-12 23:39:00,71.4,70.8,29.97,ESE,112,0.0,0.0,98,0.00,,OVC120,0.75,VWS V14.01,2013-08-13 03:39:00,
2013-08-12 23:44:00,71.4,70.8,29.97,ESE,112,0.0,0.0,98,0.00,,OVC120,0.75,VWS V14.01,2013-08-13 03:44:00,
2013-08-12 23:49:00,71.2,70.7,29.97,ESE,112,0.0,0.0,98,0.00,,OVC120,0.75,VWS V14.01,2013-08-13 03:49:00,
2013-08-12 23:54:00,71.2,70.7,29.97,ESE,112,0.0,0.0,98,0.00,,OVC120,0.75,VWS V14.01,2013-08-13 03:54:00,
2013-08-12 23:59:00,71.2,70.7,29.97,ESE,112,0.0,0.0,98,0.00,,OVC120,0.75,VWS V14.01,2013-08-13 03:59:00,